Dewpoint
53 54 54 54 54 53 53 54 55 55 55 55 55 55 56 56 56 55 56 56 56 56 57 57 56 56 56 55 55 56 56 53 51 50 51 43 47 53 65 65 65 66 67 65 64 63 62 62 58 61 62 61 60 62 66 66 66 69 62 59 57 57 55 55 53 49 50 52 55 58 59 58 57 60 59 61 62 63 62 62 63 64 64 64 64 66 66 67
54 54 54 54 54 54 54 54 55 55 55 55 55 55 55 56 56 56 56 56 57 57 56 56 56 56 55 55 56 56 55 54 51 49 47 47 58 57 60 65 68 67 67 63 60 58 59 59 56 58 59 59 60 60 63 63 65 64 60 58 56 56 57 57 55 52 53 52 55 57 58 57 57 59 58 59 61 61 60 61 63 63 64 64 65 66 66 67
53 54 54 54 54 55 55 55 55 55 55 56 55 55 55 55 56 56 56 56 56 56 56 56 56 55 56 55 57 57 54 51 50 47 44 61 58 63 63 64 70 70 64 61 58 55 54 56 53 55 56 57 59 59 61 61 63 63 61 56 57 58 57 56 55 53 53 54 55 56 57 55 56 58 58 59 60 60 59 60 62 63 62 63 64 65 66 66
53 53 53 54 54 55 55 55 55 55 55 55 55 55 55 55 55 56 56 56 56 57 56 56 56 56 56 56 57 56 53 51 43 39 41 58 65 62 66 65 69 69 61 59 54 51 51 54 52 53 55 55 56 58 60 61 62 62 62 59 57 58 57 57 55 54 52 54 55 56 56 55 55 56 57 59 59 59 60 61 62 63 63 63 64 65 66 66
54 54 54 54 55 55 54 55 55 55 55 55 55 55 55 55 55 56 56 56 56 56 56 56 56 56 55 57 57 52 47 27 26 43 44 69 70 65 68 67 70 61 58 55 50 47 49 50 51 50 52 52 52 56 56 60 61 59 61 61 59 56 56 56 55 54 52 53 54 54 53 53 54 55 57 58 58 58 59 61 62 63 63 63 64 64 65 65
53 54 55 55 55 55 54 54 55 55 55 55 55 55 55 55 55 55 56 56 56 56 56 56 56 55 56 57 54 53 42 17 33 36 75 71 73 67 67 66 70 56 50 54 48 48 46 46 49 48 48 50 50 52 54 56 60 57 57 58 59 59 55 55 52 53 52 50 52 51 53 52 52 53 55 59 58 59 61 61 63 64 64 64 64 64 64 65
54 54 54 55 55 55 55 55 54 55 55 55 55 55 55 55 55 55 55 56 55 56 56 56 56 56 56 58 54 52 43 31 36 35 67 69 73 68 64 66 68 51 46 52 51 47 46 45 47 47 47 48 50 50 52 55 56 56 55 56 55 55 54 55 54 53 52 50 50 51 52 50 51 50 52 58 58 60 61 62 63 64 64 64 63 64 64 65
54 54 54 55 55 55 55 55 55 55 55 55 56 56 55 55 55 55 55 55 56 56 56 56 56 56 57 53 51 47 41 31 29 34 51 70 71 66 62 62 52 46 43 48 50 48 47 45 44 46 47 47 47 50 51 50 52 54 54 54 54 54 53 51 51 52 51 49 50 50 50 50 50 50 53 55 58 60 61 62 63 64 64 63 63 64 65 65
54 54 54 54 54 55 55 55 55 55 55 55 55 55 55 55 55 55 55 55 56 55 56 55 55 56 58 53 49 37 27 41 41 37 64 67 64 60 57 58 48 42 40 41 47 48 46 45 44 46 45 47 46 48 49 49 48 48 51 53 53 53 53 51 48 48 50 50 49 48 49 49 50 52 52 55 59 60 61 62 63 63 63 63 63 64 65 65
54 54 54 54 55 54 54 55 55 55 55 55 54 54 54 55 55 55 55 55 55 56 55 55 56 57 55 53 48 25 20 35 46 58 65 64 60 55 53 55 47 40 39 39 41 45 45 44 44 46 39 46 46 43 45 47 46 49 48 48 49 50 51 50 48 48 49 49 48 47 48 48 49 51 49 59 60 61 61 62 62 62 62 62 63 64 65 65
54 54 54 54 54 54 55 55 55 55 55 54 54 54 54 55 55 55 55 55 55 55 55 56 57 57 52 51 34 23 22 38 40 58 61 60 55 51 50 54 47 40 38 39 39 41 44 43 43 45 41 34 43 43 42 42 44 43 43 45 47 49 50 50 49 47 48 47 48 47 47 48 49 50 50 59 60 61 61 61 62 62 62 62 63 64 65 65
53 53 54 54 54 54 54 55 55 54 54 54 54 54 55 55 54 54 54 55 56 56 56 56 58 56 54 49 45 31 34 40 40 38 54 56 53 50 50 54 47 40 38 38 38 38 39 38 39 40 37 36 32 40 39 41 40 41 43 42 43 45 44 44 44 46 47 46 47 47 47 46 48 48 53 60 60 60 60 61 61 62 62 63 63 63 64 65
54 54 54 54 54 54 55 55 55 54 53 53 54 54 54 54 54 54 55 55 56 56 57 57 58 56 49 34 40 40 38 39 39 42 43 53 53 54 54 53 47 41 39 37 37 36 35 33 38 35 36 33 35 36 37 42 40 40 41 42 42 42 42 42 41 42 45 46 47 47 43 44 47 48 58 60 60 60 60 60 61 61 62 62 63 63 64 64
54 54 54 54 54 54 55 55 54 53 53 54 53 52 52 53 54 55 57 58 56 57 58 59 56 55 51 39 40 47 47 46 46 45 43 42 39 40 53 54 49 43 41 37 37 36 34 33 30 32 29 28 27 28 27 30 38 39 40 42 41 40 39 41 40 40 43 45 47 46 42 43 44 49 59 60 60 60 59 60 60 61 61 62 62 62 63 64
54 54 53 54 54 55 54 53 53 53 53 53 52 52 52 52 55 58 60 58 57 59 59 58 56 53 47 44 48 49 60 56 53 49 46 39 38 39 47 53 51 47 41 38 37 36 34 31 30 28 26 30 28 27 26 30 36 35 35 35 36 38 38 39 39 40 40 45 46 44 42 42 43 52 58 60 60 60 59 59 60 60 61 61 61 62 62 63
54 54 53 53 54 54 53 53 52 53 53 52 51 51 54 53 57 59 58 58 58 59 58 55 55 54 51 43 40 49 56 49 49 51 51 42 39 37 43 51 51 48 42 38 35 33 31 29 27 26 26 28 28 28 29 32 33 34 33 32 33 35 37 35 35 38 41 43 45 44 42 45 44 55 58 59 59 59 59 59 60 60 60 61 61 61 62 62
53 53 53 54 54 54 53 52 52 53 51 51 51 51 54 56 59 60 60 59 58 58 56 53 53 55 41 42 45 43 38 43 46 34 35 44 40 39 43 46 46 46 42 39 36 32 30 28 31 28 27 24 26 31 32 32 32 33 32 32 32 31 33 32 35 37 39 41 43 44 42 42 47 56 57 58 59 59 59 59 59 60 60 60 61 60 61 62
53 53 53 54 54 53 53 52 52 52 51 50 50 51 50 54 58 59 59 58 58 58 56 53 53 49 41 45 38 39 33 24 19 17 15 25 43 40 39 40 40 43 40 36 35 31 30 26 27 22 24 23 26 30 30 30 33 33 31 32 31 31 32 32 33 35 39 41 43 44 43 42 49 55 56 57 58 58 58 59 59 59 60 60 60 60 60 61
54 53 54 54 53 52 52 52 52 51 50 51 51 52 54 52 56 54 46 52 30 26 15 46 47 28 13 26 29 27 24 21 19 16 12 37 44 41 41 37 38 38 35 33 30 31 30 30 28 26 22 24 24 26 29 33 33 31 30 30 31 30 31 31 32 34 39 41 42 43 43 42 50 55 56 56 57 56 57 58 58 59 59 59 59 59 59 60
54 54 54 53 52 52 52 52 51 50 50 49 44 42 32 22 20 20 40 25 20 19 16 15 45 38 34 31 26 25 21 21 17 19 21 32 41 40 37 36 34 36 32 31 29 30 29 27 26 23 22 24 27 28 31 33 31 29 31 30 30 30 30 30 30 31 36 36 39 41 43 44 50 54 55 56 56 56 56 56 57 58 58 58 58 59 59 60
54 53 53 52 51 51 52 51 51 50 50 48 44 23 21 21 19 15 20 21 22 21 19 19 18 18 20 21 20 19 18 19 23 20 18 22 25 37 34 34 31 32 31 31 28 29 28 26 27 24 23 26 30 34 33 30 26 27 25 26 27 29 29 31 30 31 34 33 33 37 42 46 50 53 55 56 56 55 55 56 56 57 57 57 58 58 58 59
53 54 52 51 51 51 50 51 50 50 50 47 37 24 23 24 23 22 22 20 21 22 21 21 21 20 20 20 20 21 23 20 20 18 17 18 26 32 32 32 30 30 31 29 29 27 26 24 25 26 30 32 31 31 29 29 27 23 22 23 23 24 26 26 26 28 29 33 31 35 43 46 49 52 54 55 55 56 56 56 56 56 56 57 57 58 58 58
53 53 52 51 50 50 50 50 49 50 43 41 39 36 24 26 27 27 24 22 21 22 21 23 22 21 21 23 23 24 22 21 20 21 17 22 29 32 31 31 29 28 29 29 27 27 24 25 25 28 32 29 27 26 26 25 26 26 23 21 21 23 27 25 28 30 28 28 28 32 40 45 48 51 53 55 55 55 56 56 56 56 56 56 57 57 57 58
54 54 53 51 50 49 50 49 48 43 39 40 40 32 26 28 25 25 22 20 20 22 24 24 24 22 22 22 25 22 21 22 22 18 20 18 25 30 29 30 29 27 27 28 28 27 24 27 29 31 31 31 29 25 24 24 24 24 23 22 21 21 22 23 25 24 25 25 26 25 35 40 46 49 51 54 55 55 55 56 56 56 57 57 57 57 58 58
53 53 52 50 49 50 48 48 37 38 41 40 40 33 30 36 33 26 22 22 22 22 26 26 31 26 19 29 27 23 22 23 19 19 19 19 22 27 28 29 29 26 26 27 28 28 27 28 30 29 30 31 31 28 24 23 23 25 24 22 22 21 21 22 22 24 24 24 26 24 26 33 44 48 50 51 53 53 54 55 55 56 56 57 56 57 57 58
53 52 52 50 50 50 49 34 32 40 40 38 28 29 33 37 35 29 24 22 20 23 30 15 29 18 25 16 19 25 22 19 20 19 22 17 25 24 30 26 28 26 25 25 26 28 27 28 28 29 28 29 30 30 28 23 24 23 25 24 22 21 21 21 22 23 25 24 27 28 23 26 40 46 48 50 51 52 53 53 54 56 56 56 56 57 57 57
52 51 50 49 50 49 37 32 38 41 28 24 26 30 36 37 40 26 21 22 21 19 19 16 23 18 21 14 14 26 5 11 15 17 21 25 16 25 21 25 26 28 27 28 28 23 26 25 26 26 28 28 27 28 29 24 21 21 24 23 22 21 20 20 21 22 23 29 26 25 29 28 32 44 47 49 50 51 51 51 53 54 55 56 56 57 57 57
52 50 49 49 49 49 43 43 41 38 33 28 32 37 38 40 36 30 26 14 18 17 15 17 17 20 16 14 15 13 13 14 13 15 17 18 19 16 20 22 23 25 28 27 22 24 25 24 25 25 25 26 26 28 29 28 23 23 22 21 20 21 21 21 20 20 23 24 21 22 26 24 33 37 46 48 48 49 50 50 51 52 54 55 56 57 57 57
50 49 49 49 49 48 48 45 42 39 37 37 38 39 42 41 28 27 22 8 22 16 21 16 20 19 12 13 13 12 14 15 13 15 19 20 16 20 13 16 23 23 26 28 25 27 25 25 25 26 25 24 25 27 28 29 27 27 26 23 22 22 20 20 20 20 23 24 20 22 22 21 23 35 42 47 47 47 48 49 50 51 53 54 55 56 57 57
50 49 49 49 47 44 43 45 43 43 40 41 41 44 40 27 25 25 9 4 12 11 16 17 13 10 13 12 11 11 11 14 16 17 19 21 24 19 19 25 21 21 20 24 29 30 28 34 32 26 25 26 27 26 28 29 29 30 28 26 24 23 23 24 26 24 26 20 20 20 21 21 20 28 40 44 45 47 48 49 50 51 51 53 54 55 56 57
49 48 48 48 44 44 45 38 35 39 41 43 45 38 27 27 30 19 6 10 14 20 17 13 10 12 12 11 10 12 13 14 16 18 17 20 25 26 22 16 22 20 20 19 19 24 28 27 32 30 30 29 29 27 28 29 29 29 27 26 27 27 28 25 26 29 22 20 24 22 22 20 19 24 32 44 46 47 47 47 48 49 50 51 53 54 56 57
48 47 48 47 47 49 42 35 37 42 44 45 40 27 20 13 17 16 7 18 13 13 13 10 10 12 12 12 11 13 13 14 17 17 16 18 23 26 26 25 26 20 18 18 18 18 17 24 26 28 37 30 29 28 27 28 28 28 27 27 25 25 24 22 22 19 22 22 26 20 19 19 20 21 22 38 45 46 47 47 48 49 49 51 52 53 55 56
47 46 47 48 51 48 48 45 46 46 46 44 31 25 19 15 10 20 14 13 16 13 10 13 9 12 12 11 13 13 15 14 17 16 18 18 24 26 27 26 25 25 18 21 18 14 16 18 19 23 25 34 29 27 25 25 26 27 26 26 25 22 21 22 22 20 16 22 22 19 19 16 24 22 20 29 41 45 46 47 47 48 49 50 51 53 54 56
47 47 43 45 45 46 46 49 47 46 45 37 27 21 21 15 18 23 14 12 11 14 13 9 10 13 12 12 12 13 12 15 16 16 17 19 25 25 26 26 25 23 25 23 17 13 15 14 15 17 19 27 30 28 26 25 26 26 27 25 25 24 22 21 21 19 18 20 17 16 15 19 15 24 21 21 35 43 45 46 47 49 49 50 51 52 53 55
47 43 42 44 47 44 41 41 41 39 30 26 25 25 19 16 24 13 14 12 12 12 9 9 13 12 11 12 11 12 13 13 16 16 16 19 25 26 26 26 26 24 24 23 28 26 17 16 17 17 17 23 25 29 28 24 23 26 27 26 24 24 28 22 22 18 18 17 15 17 16 21 17 29 38 22 26 37 44 45 47 48 50 50 51 51 52 54
42 39 43 45 43 35 38 39 38 38 27 25 27 24 18 20 12 13 13 14 13 10 9 9 13 11 12 10 14 11 14 15 15 16 16 19 27 27 27 27 26 25 23 22 24 24 28 18 21 23 15 18 19 26 29 25 22 22 25 24 24 22 21 23 32 30 25 19 13 28 17 18 20 18 16 26 25 31 40 44 45 47 49 50 50 51 52 53
40 42 40 43 36 35 37 38 38 36 31 27 25 22 25 22 14 13 31 12 10 11 10 8 11 11 11 10 11 12 13 16 16 16 16 18 23 28 27 28 27 26 25 24 24 28 28 29 31 31 26 17 16 21 27 27 23 21 21 23 21 21 22 21 18 23 18 12 17 22 14 17 13 17 28 20 27 30 37 42 44 46 48 49 50 51 52 53
42 41 45 46 34 36 37 37 37 32 29 28 24 36 32 20 16 15 14 13 12 11 9 11 13 12 12 11 11 12 13 14 17 17 16 19 19 29 27 27 28 27 26 25 26 27 27 29 30 28 25 24 20 14 17 24 25 22 21 21 21 18 18 20 23 15 13 15 15 17 25 19 17 21 24 16 16 24 37 40 43 45 47 49 50 51 52 53
41 41 40 38 33 37 37 37 38 31 28 25 26 31 39 15 15 17 15 14 14 12 9 11 13 17 13 12 13 13 12 15 19 18 17 22 22 27 27 28 27 28 27 25 23 24 29 30 30 29 28 30 28 15 12 14 20 24 20 20 22 19 20 18 18 24 19 18 17 12 17 11 21 13 16 12 14 19 37 40 42 43 46 48 49 50 51 53
42 36 32 38 33 37 37 38 31 26 26 20 25 29 21 20 20 19 16 18 13 11 15 14 15 14 15 16 14 12 13 16 20 20 22 25 25 28 28 29 27 27 28 25 22 24 30 32 28 29 31 30 25 17 12 12 14 18 18 17 19 21 22 19 23 16 17 24 17 15 11 18 24 27 16 14 15 17 34 41 42 43 45 47 49 50 51 52
44 39 36 34 34 38 36 29 29 28 24 27 25 22 22 23 21 21 22 20 17 17 14 15 14 13 15 15 13 14 14 15 21 23 22 24 27 26 28 28 28 27 27 24 23 23 30 31 27 29 29 28 27 26 20 18 16 16 17 17 17 17 17 15 16 19 21 19 18 14 10 23 25 26 18 17 18 15 27 40 43 43 44 47 49 50 51 52
37 27 26 32 37 37 33 30 32 32 23 29 27 25 24 30 22 23 23 22 18 15 17 16 16 15 16 16 16 14 14 17 25 26 26 26 27 27 28 30 28 26 26 24 23 24 30 31 32 28 29 29 30 31 31 32 32 31 20 16 17 18 18 17 18 18 17 15 29 23 16 17 29 26 22 20 18 15 23 33 41 43 44 46 48 50 51 53
35 33 35 39 38 36 32 31 36 35 30 30 33 31 26 24 25 25 22 22 19 19 17 16 16 15 18 16 15 15 20 22 29 30 28 27 28 27 30 29 27 26 26 24 25 27 35 31 23 24 28 30 31 32 33 34 32 28 24 18 15 15 15 16 17 21 16 19 17 16 19 18 24 39 31 23 22 20 24 34 38 42 44 45 47 49 51 52
39 40 40 40 37 36 33 30 31 30 35 34 34 30 29 25 25 25 24 24 23 23 21 18 18 22 22 22 20 20 21 20 27 28 30 28 27 32 30 28 28 25 24 24 25 30 23 29 26 25 28 26 23 25 24 33 30 28 29 30 23 16 16 18 26 27 15 15 14 16 14 14 28 47 40 40 37 29 21 27 38 40 44 45 47 49 51 53
41 41 42 38 39 35 33 33 33 32 33 34 34 29 29 27 27 28 27 24 27 26 24 20 22 23 23 25 23 22 22 20 20 30 29 27 27 34 29 28 28 25 25 34 38 30 25 27 27 22 23 23 19 18 23 28 28 27 28 31 31 20 15 16 14 20 18 26 21 16 15 22 26 29 26 26 33 34 32 20 26 37 42 46 48 50 52 53
33 29 33 34 35 34 34 35 34 34 34 34 33 32 30 29 30 30 30 26 29 28 26 25 23 24 25 24 22 21 22 22 21 23 32 30 28 28 29 29 27 25 36 39 37 30 29 29 28 29 26 25 26 27 26 30 26 25 26 27 27 28 28 15 23 20 16 26 20 20 20 21 17 14 15 14 21 27 25 29 24 29 40 47 49 51 52 53
37 32 33 31 34 33 32 33 33 34 33 35 32 33 30 29 30 35 32 31 30 29 27 25 26 26 26 25 25 22 24 22 27 26 26 26 33 25 29 29 28 31 37 33 34 28 30 26 24 29 27 27 27 26 25 26 23 23 23 24 26 28 29 22 16 15 27 22 17 28 34 18 15 14 15 17 18 27 32 28 26 30 38 47 50 52 60 53
29 34 36 36 32 29 32 31 33 34 35 35 35 35 31 29 30 30 32 31 30 30 28 32 28 29 28 28 27 25 25 25 26 24 29 28 26 24 26 30 28 34 32 26 29 25 27 23 23 23 23 25 24 24 23 23 22 23 24 26 27 29 30 27 19 22 25 17 18 29 35 24 16 14 14 21 21 21 25 32 29 32 42 49 51 52 53 53
35 37 36 38 33 35 34 34 35 35 34 35 37 33 31 31 30 31 31 30 31 30 31 28 29 30 29 28 28 26 26 22 23 27 27 27 25 24 27 31 30 31 29 28 27 27 25 24 25 25 23 22 22 23 23 23 25 26 27 28 29 29 29 29 24 24 19 27 26 30 34 23 16 14 16 18 25 29 35 44 43 45 47 51 51 52 53 53
36 34 35 40 37 36 35 34 34 34 33 36 35 35 33 33 32 33 35 33 31 31 34 32 31 31 30 29 29 26 27 28 27 26 30 28 25 29 30 32 37 37 31 28 27 27 25 26 28 23 23 21 22 24 25 24 22 24 27 30 35 35 31 29 23 24 28 29 32 28 32 29 24 28 27 38 46 46 47 45 44 44 47 50 50 52 53 53
44 46 43 38 35 34 35 34 33 33 31 34 34 36 35 33 33 36 34 36 33 32 34 32 32 32 31 30 29 28 29 30 30 28 28 27 24 27 26 35 32 29 28 29 29 28 27 28 27 26 22 21 22 22 22 22 24 27 30 34 38 41 26 21 20 33 28 25 29 36 34 30 29 37 43 44 45 48 45 46 46 46 47 50 50 51 53 53
47 46 45 42 34 36 34 34 32 31 30 35 34 33 33 33 34 35 32 36 36 36 35 33 33 32 31 30 29 29 30 30 29 29 29 28 26 25 25 24 29 29 28 30 31 29 28 28 24 25 22 21 22 22 21 24 30 31 34 35 36 43 47 47 48 49 49 43 26 26 24 35 41 45 42 42 39 41 46 47 48 49 49 50 50 51 52 53